Flag for United Kingdom Weather past 2 weeks in Cardiff, Wales, United Kingdom

Now
59 °F

Refreshingly cool.


Feels Like: 57 °F
Forecast: 45 / 64 °F
Wind: 12 mph from Northwest

Location: Wales Airport

Current Time: Aug 23, 2014 at 7:20:02 PM

Latest Report: Aug 23, 2014 at 6:50 PM


Visibility: N/A

Pressure: 30.04 "Hg

Humidity: 59%

Dew point: 45 °F

Location of CardiffLocation

Historic Weather in Cardiff — Graph

°F

Cardiff temperature yesterday

Maximum temperature yesterday: 63 °F (at 12:20 PM)
Minimum temperature yesterday: 48 °F (at 10:50 PM)
Average temperature yesterday: 56 °F

Past Weeks' High & Low Weather Summary

 TemperatureHumidityPressure
High66 °F (Aug 9, 11:20 AM)100% (Aug 10, 6:50 AM)30.21 "Hg (Aug 10, 6:50 AM)
Low46 °F (Aug 20, 1:20 AM)45% (Aug 20, 12:20 PM)29.30 "Hg (Aug 10, 9:20 AM)
Average58 °F77%29.87 "Hg
* Reported Aug 8 6:20 PM — Aug 23 6:20 PM, Cardiff, Weather by CustomWeather, © 2014

Note: Actual official high and low records may vary slightly from our data, if they occured in-between our weather recording intervals... More about our weather records

Advertising

Cardiff weather history for previous 24 hours

 ConditionsComfort  
Time TempWeatherWind HumidityBarometerVisibility
6:20 PM
Aug 23
59 °FPassing clouds.14 mph59%30.04 "HgN/A
5:50 PM61 °FPassing clouds.16 mph59%30.04 "HgN/A
5:20 PM61 °FPassing clouds.16 mph59%30.04 "HgN/A
4:50 PM61 °FPassing clouds.17 mph59%30.04 "HgN/A
4:20 PM61 °FPassing clouds.16 mph59%30.04 "HgN/A
3:50 PM61 °FPassing clouds.15 mph59%30.04 "HgN/A
3:20 PM59 °FScattered clouds.14 mph59%30.04 "HgN/A
2:50 PM59 °FScattered clouds.16 mph59%30.04 "HgN/A
2:20 PM61 °FScattered clouds.17 mph55%30.04 "HgN/A
1:50 PM61 °FScattered clouds.14 mph59%30.04 "HgN/A
1:20 PM61 °FScattered clouds.15 mph59%30.04 "HgN/A
12:50 PM61 °FScattered clouds.13 mph55%30.04 "HgN/A
12:20 PM59 °FScattered clouds.13 mph59%30.04 "HgN/A
11:50 AM59 °FScattered clouds.14 mph59%30.04 "HgN/A
11:20 AM59 °FScattered clouds.13 mph59%30.04 "HgN/A
10:50 AM59 °FScattered clouds.14 mph59%30.04 "HgN/A
10:20 AM59 °FScattered clouds.12 mph59%30.01 "HgN/A
9:50 AM57 °FPassing clouds.10 mph72%30.01 "HgN/A
9:20 AM57 °FCool.10 mph72%30.01 "HgN/A
8:50 AM54 °FPassing clouds.9 mph82%30.01 "HgN/A
8:20 AM52 °FPassing clouds.8 mph88%30.01 "HgN/A
7:50 AM50 °FPassing clouds.9 mph88%30.01 "HgN/A
7:20 AM46 °FPassing clouds.9 mph93%29.98 "HgN/A
6:50 AM46 °FClear.8 mph93%29.98 "Hg10 mi
6:20 AM46 °FClear.7 mph93%29.98 "Hg10 mi
5:50 AM46 °FClear.9 mph93%29.98 "Hg10 mi
5:20 AM46 °FCool.9 mph93%29.98 "HgN/A
4:50 AM48 °FCool.8 mph87%29.98 "HgN/A
4:20 AM46 °FCool.8 mph93%29.98 "HgN/A
3:50 AM46 °FCool.9 mph93%29.98 "HgN/A
3:20 AM46 °FClear.9 mph93%29.98 "Hg10 mi
2:50 AM46 °FCool.8 mph87%29.98 "HgN/A
2:20 AM48 °FCool.8 mph82%29.98 "HgN/A
1:50 AM48 °FPassing clouds.7 mph87%29.98 "HgN/A
1:20 AM50 °FCool.7 mph82%29.98 "HgN/A
12:50 AM50 °FCool.7 mph82%29.98 "HgN/A
12:20 AM48 °FCool.6 mph82%29.98 "HgN/A
11:50 PM
Aug 22
48 °FCool.7 mph82%29.98 "HgN/A
11:20 PM48 °FCool.8 mph82%29.98 "HgN/A
10:50 PM48 °FCool.9 mph82%29.98 "HgN/A
10:20 PM50 °FCool.8 mph82%29.98 "HgN/A
9:50 PM50 °FPassing clouds.7 mph82%29.98 "HgN/A
9:20 PM50 °FCool.8 mph76%29.98 "HgN/A
8:50 PM52 °FPassing clouds.9 mph77%29.98 "HgN/A
8:20 PM54 °FPassing clouds.9 mph67%29.95 "HgN/A
7:50 PM55 °FPassing clouds.8 mph63%29.95 "HgN/A
7:20 PM59 °FPassing clouds.14 mph55%29.95 "HgN/A
Weather by CustomWeather, © 2014

See weather overviewHow to use our weather pages